Weather History for KMVY - January, 2013

Change the Weather History Date:

Saturday, January 26, 2013

  Actual Average Record
Temperature  
Mean Temperature 20 °F -  
Max Temperature 25 °F 40 °F 54 °F (1990)
Min Temperature 16 °F 25 °F -1 °F (1961)
Degree Days  
Heating Degree Days 44    
Moisture  
Dew Point 10 °F    
Average Humidity 70    
Maximum Humidity 93    
Minimum Humidity 35    
Precipitation  
Precipitation 0.00 in - - ()
Sea Level Pressure  
Sea Level Pressure 30.04 in    
Wind  
Wind Speed 10 mph (NNW)    
Max Wind Speed 22 mph    
Max Gust Speed 32 mph    
Visibility 8 miles    
Events Snow    
Averages and records for this station are not official NWS values.
T = Trace of Precipitation, MM = Missing Value Source: NWS Daily Summary

Daily Weather History Graph

Daily Weather History Graph

Search for Another Location

Airport or City:

Trip Planner

Search our weather history database for the weather conditions in past years. The results will help you decide how hot, cold, wet, or windy it might be!

Date:

Astronomy

Jan. 26, 2013 Rise Set
Actual Time 6:59 AM EST 4:51 PM EST
Civil Twilight 6:29 AM EST 5:21 PM EST
Nautical Twilight 5:56 AM EST 5:54 PM EST
Astronomical Twilight 5:23 AM EST 6:27 PM EST
Moon 4:43 PM EST (1/26) 6:14 AM EST (1/26)
Length of Visible Light 10h 51m
Length of Day
9h 52m
Full, 100% of the Moon is Illuminated
Jan 26
Full
Jan 26
Full
Feb 3
Last Quarter
Feb 10
New
Feb 17
First Quarter

Hourly Weather History & Observations

Time (EST) Temp. Windchill Dew Point Humidity Pressure Visibility Wind Dir Wind Speed Gust Speed Precip Events Conditions
12:08 AM 21.2 °F 12.6 °F 17.6 °F 86% 30.02 in 2.5 mi North 6.9 mph - 0.00 in Snow Light Snow
12:53 AM 19.9 °F 9.3 °F 17.1 °F 89% 30.01 in 2.0 mi North 9.2 mph - 0.00 in Snow Light Snow
1:00 AM 19.4 °F 9.5 °F 17.6 °F 93% 30.01 in 1.8 mi North 8.1 mph - 0.00 in Snow Light Snow
1:17 AM 19.4 °F 9.5 °F 17.6 °F 93% 30.01 in 2.5 mi North 8.1 mph - 0.00 in Snow Light Snow
1:23 AM 19.4 °F 10.4 °F 17.6 °F 93% 30.01 in 3.0 mi North 6.9 mph - 0.00 in Snow Light Snow
1:53 AM 19.9 °F 11.1 °F 17.1 °F 89% 30.00 in 4.0 mi North 6.9 mph - 0.00 in Snow Light Snow
2:31 AM 19.4 °F 11.5 °F 17.6 °F 93% 29.99 in 5.0 mi North 5.8 mph - 0.00 in Snow Light Snow
2:53 AM 19.9 °F 13.4 °F 17.1 °F 89% 29.99 in 5.0 mi North 4.6 mph - 0.00 in Snow Light Snow
3:45 AM 19.4 °F 10.4 °F 17.6 °F 93% 29.98 in 8.0 mi NNW 6.9 mph - 0.00 in Snow Light Snow
3:53 AM 19.9 °F 9.3 °F 17.1 °F 89% 29.98 in 9.0 mi North 9.2 mph - 0.00 in   Overcast
4:32 AM 19.4 °F 9.5 °F 15.8 °F 86% 29.97 in 10.0 mi NNW 8.1 mph - N/A   Overcast
4:53 AM 19.0 °F 9.0 °F 14.0 °F 81% 29.98 in 10.0 mi NNW 8.1 mph - N/A   Overcast
5:53 AM 16.0 °F 5.3 °F 12.0 °F 84% 29.99 in 10.0 mi NNW 8.1 mph - N/A   Clear
6:53 AM 16.0 °F 5.3 °F 12.9 °F 88% 29.99 in 10.0 mi NNW 8.1 mph - N/A   Clear
7:53 AM 17.1 °F 8.7 °F 12.0 °F 81% 30.01 in 10.0 mi NNW 5.8 mph - N/A   Clear
8:53 AM 18.0 °F 6.1 °F 10.9 °F 74% 30.02 in 10.0 mi NW 10.4 mph - N/A   Clear
9:53 AM 19.0 °F 5.0 °F 12.0 °F 74% 30.04 in 10.0 mi North 15.0 mph - N/A   Clear
10:53 AM 19.9 °F 7.3 °F 10.9 °F 68% 30.04 in 10.0 mi NW 12.7 mph - N/A   Clear
11:53 AM 21.9 °F 9.8 °F 12.0 °F 66% 30.01 in 10.0 mi NNW 12.7 mph - N/A   Clear
12:53 PM 23.0 °F 11.7 °F 10.0 °F 58% 30.01 in 10.0 mi NNW 11.5 mph - N/A   Clear
1:53 PM 25.0 °F 13.6 °F 9.0 °F 51% 30.01 in 10.0 mi NW 12.7 mph 17.3 mph N/A   Clear
2:53 PM 25.0 °F 13.6 °F 8.1 °F 49% 30.02 in 10.0 mi WNW 12.7 mph 19.6 mph N/A   Clear
3:53 PM 25.0 °F 13.6 °F 8.1 °F 49% 30.04 in 10.0 mi NW 12.7 mph - N/A   Clear
4:53 PM 23.0 °F 11.7 °F 6.1 °F 48% 30.06 in 10.0 mi NW 11.5 mph - N/A   Clear
5:53 PM 21.9 °F 8.7 °F 1.0 °F 40% 30.09 in 10.0 mi NNW 15.0 mph 23.0 mph N/A   Clear
6:53 PM 21.0 °F 8.6 °F 1.9 °F 44% 30.12 in 10.0 mi NNW 12.7 mph - N/A   Clear
7:53 PM 21.0 °F 5.4 °F -2.9 °F 35% 30.14 in 10.0 mi NW 20.7 mph 32.2 mph N/A   Overcast
8:53 PM 19.9 °F 3.5 °F -4.0 °F 35% 30.15 in 10.0 mi NW 21.9 mph 29.9 mph N/A   Overcast
9:53 PM 18.0 °F 1.7 °F -2.0 °F 41% 30.18 in 10.0 mi NNW 19.6 mph 28.8 mph N/A   Clear
10:53 PM 17.1 °F 2.5 °F 1.0 °F 50% 30.22 in 10.0 mi NNW 15.0 mph 28.8 mph N/A   Clear
11:53 PM 17.1 °F -0.3 °F -0.0 °F 47% 30.22 in 10.0 mi NNW 21.9 mph 31.1 mph N/A   Clear